• In Hungary
  • List of Countries
  • For 7 days
  • Water Temperature
  • Satellite Maps
  • Weather Map
  • News
  • Weather Widgets
  • user-avatar
    Login

    Hourly Weather Grabowka

    Today, 18 October, Wednesday

    Time Temperature Precipitation Wind Pressure Humidity
    00:00 +14°C° 0 mm 3 mps 745 mmHg 71%
    01:00 +14°C° 0 mm 3 mps 745 mmHg 74%
    02:00 +13°C° 0 mm 3 mps 745 mmHg 75%
    03:00 +13°C° 0 mm 3 mps 744 mmHg 76%
    04:00 +13°C° 0 mm 3 mps 744 mmHg 77%
    05:00 +13°C° 0 mm 3 mps 744 mmHg 77%
    06:00 +13°C° 0 mm 3 mps 744 mmHg 78%
    07:00 +13°C° 0 mm 3 mps 744 mmHg 73%
    08:00 +14°C° 0 mm 3 mps 744 mmHg 67%
    09:00 +17°C° 0 mm 3 mps 743 mmHg 62%
    10:00 +19°C° 0 mm 3 mps 743 mmHg 56%
    11:00 +20°C° 0 mm 3 mps 743 mmHg 53%
    12:00 +21°C° 0 mm 3 mps 743 mmHg 50%
    13:00 +23°C° 0 mm 2 mps 743 mmHg 46%
    14:00 +21°C° 0 mm 2 mps 742 mmHg 50%
    15:00 +21°C° 0 mm 1 mps 742 mmHg 53%
    16:00 +21°C° 0 mm 1 mps 742 mmHg 56%
    17:00 +20°C° 0 mm 1 mps 742 mmHg 58%
    18:00 +19°C° 0 mm 1 mps 742 mmHg 60%
    19:00 +18°C° 0 mm 1 mps 742 mmHg 62%
    20:00 +16°C° 0 mm 1 mps 742 mmHg 64%
    21:00 +16°C° 0 mm 1 mps 742 mmHg 65%
    22:00 +16°C° 0 mm 1 mps 742 mmHg 67%
    23:00 +15°C° 0 mm 1 mps 742 mmHg 68%

    Tomorrow, 19 October, Thursday

    Time Temperature Precipitation Wind Pressure Humidity
    00:00 +15°C° 0 mm 1 mps 741 mmHg 69%
    01:00 +15°C° 0 mm 1 mps 741 mmHg 70%
    02:00 +14°C° 0 mm 1 mps 741 mmHg 72%
    03:00 +14°C° 0 mm 1 mps 741 mmHg 74%
    04:00 +14°C° 0 mm 1 mps 741 mmHg 75%
    05:00 +13°C° 0 mm 1 mps 741 mmHg 77%
    06:00 +13°C° 0 mm 1 mps 741 mmHg 80%
    07:00 +13°C° 0 mm 1 mps 742 mmHg 82%
    08:00 +14°C° 0 mm 1 mps 742 mmHg 76%
    09:00 +16°C° 0 mm 1 mps 742 mmHg 71%
    10:00 +18°C° 0 mm 1 mps 742 mmHg 66%
    11:00 +19°C° 0 mm 1 mps 742 mmHg 63%
    12:00 +20°C° 0 mm 1 mps 742 mmHg 60%
    13:00 +21°C° 0 mm 1 mps 742 mmHg 57%
    14:00 +20°C° 0 mm 1 mps 742 mmHg 59%
    15:00 +20°C° 0 mm 1 mps 742 mmHg 62%
    16:00 +17°C° 0 mm 0 mps 742 mmHg 64%
    17:00 +16°C° 0 mm 0 mps 742 mmHg 68%
    18:00 +15°C° 0 mm 0 mps 743 mmHg 72%
    19:00 +14°C° 0 mm 0 mps 743 mmHg 75%
    20:00 +14°C° 0 mm 0 mps 743 mmHg 77%
    21:00 +13°C° 0 mm 0 mps 743 mmHg 80%
    22:00 +13°C° 0 mm 0 mps 743 mmHg 82%
    23:00 +14°C° 0 mm 1 mps 743 mmHg 84%

    Day after tomorrow, 20 October, Friday

    Time Temperature Precipitation Wind Pressure Humidity
    00:00 +13°C° 0 mm 1 mps 744 mmHg 85%
    01:00 +13°C° 0 mm 1 mps 744 mmHg 87%
    02:00 +13°C° 0 mm 1 mps 744 mmHg 88%
    03:00 +12°C° 0 mm 1 mps 744 mmHg 89%
    04:00 +12°C° 0 mm 1 mps 744 mmHg 90%
    05:00 +12°C° 0 mm 1 mps 744 mmHg 90%
    06:00 +12°C° 0 mm 1 mps 744 mmHg 90%
    07:00 +12°C° 0 mm 1 mps 744 mmHg 90%
    08:00 +13°C° 0 mm 1 mps 745 mmHg 83%
    09:00 +15°C° 0 mm 2 mps 745 mmHg 76%
    10:00 +17°C° 0 mm 2 mps 745 mmHg 69%
    11:00 +17°C° 0 mm 2 mps 745 mmHg 65%
    12:00 +18°C° 0 mm 2 mps 745 mmHg 61%
    13:00 +19°C° 0 mm 2 mps 745 mmHg 58%
    14:00 +19°C° 0 mm 2 mps 745 mmHg 60%
    15:00 +18°C° 0 mm 2 mps 745 mmHg 63%
    16:00 +18°C° 0 mm 2 mps 745 mmHg 66%
    17:00 +17°C° 0 mm 2 mps 745 mmHg 70%
    18:00 +16°C° 0 mm 2 mps 745 mmHg 75%
    19:00 +14°C° 0 mm 2 mps 746 mmHg 79%
    20:00 +14°C° 0 mm 2 mps 746 mmHg 82%
    21:00 +14°C° 0 mm 2 mps 746 mmHg 85%
    22:00 +13°C° 0 mm 2 mps 746 mmHg 88%
    23:00 +13°C° 0 mm 2 mps 746 mmHg 89%

    21 October, Saturday

    Time Temperature Precipitation Wind Pressure Humidity
    00:00 +12°C° 0 mm 2 mps 746 mmHg 91%
    01:00 +12°C° 0 mm 2 mps 746 mmHg 93%
    02:00 +12°C° 0 mm 2 mps 746 mmHg 93%
    03:00 +10°C° 0 mm 2 mps 746 mmHg 94%
    04:00 +10°C° 0 mm 2 mps 745 mmHg 94%
    05:00 +10°C° 0 mm 2 mps 746 mmHg 94%
    06:00 +10°C° 0 mm 2 mps 746 mmHg 94%
    07:00 +10°C° 0 mm 2 mps 746 mmHg 94%
    08:00 +11°C° 0 mm 3 mps 746 mmHg 87%
    09:00 +13°C° 0 mm 3 mps 745 mmHg 80%
    10:00 +16°C° 0 mm 3 mps 745 mmHg 72%
    11:00 +17°C° 0 mm 3 mps 745 mmHg 67%
    12:00 +18°C° 0 mm 3 mps 745 mmHg 62%
    13:00 +19°C° 0 mm 3 mps 744 mmHg 58%
    14:00 +18°C° 0 mm 3 mps 744 mmHg 60%
    15:00 +18°C° 0 mm 2 mps 744 mmHg 62%
    16:00 +17°C° 0 mm 2 mps 744 mmHg 64%
    17:00 +16°C° 0 mm 2 mps 744 mmHg 68%
    18:00 +15°C° 0 mm 2 mps 744 mmHg 72%
    19:00 +13°C° 0 mm 3 mps 743 mmHg 75%
    20:00 +13°C° 0 mm 3 mps 743 mmHg 77%
    21:00 +13°C° 0 mm 3 mps 743 mmHg 79%
    22:00 +12°C° 0 mm 3 mps 743 mmHg 80%
    23:00 +12°C° 0 mm 3 mps 743 mmHg 80%

    22 October, Sunday

    Time Temperature Precipitation Wind Pressure Humidity
    00:00 +12°C° 0 mm 3 mps 743 mmHg 80%
    01:00 +12°C° 0 mm 3 mps 743 mmHg 80%
    02:00 +12°C° 0 mm 3 mps 743 mmHg 80%
    03:00 +12°C° 0 mm 3 mps 742 mmHg 80%
    04:00 +12°C° 0 mm 3 mps 742 mmHg 79%
    05:00 +11°C° 0 mm 3 mps 742 mmHg 80%
    06:00 +11°C° 0 mm 3 mps 742 mmHg 81%
    07:00 +11°C° 0 mm 3 mps 742 mmHg 82%
    08:00 +12°C° 0 mm 3 mps 742 mmHg 80%
    09:00 +13°C° 0 mm 3 mps 742 mmHg 79%
    10:00 +14°C° 0 mm 4 mps 742 mmHg 77%
    11:00 +13°C° 0.4 mm 4 mps 742 mmHg 80%
    12:00 +13°C° 0.4 mm 4 mps 742 mmHg 83%
    13:00 +12°C° 0.4 mm 4 mps 741 mmHg 86%
    14:00 +12°C° 1 mm 3 mps 742 mmHg 87%
    15:00 +11°C° 1 mm 3 mps 742 mmHg 88%
    16:00 +11°C° 1 mm 3 mps 742 mmHg 89%
    17:00 +11°C° 0.6 mm 3 mps 742 mmHg 90%
    18:00 +12°C° 0.6 mm 2 mps 742 mmHg 91%
    19:00 +10°C° 0.6 mm 2 mps 742 mmHg 92%
    20:00 +10°C° 0.7 mm 2 mps 742 mmHg 92%
    21:00 +10°C° 0.7 mm 2 mps 743 mmHg 92%
    22:00 +10°C° 0.7 mm 3 mps 743 mmHg 92%
    23:00 +10°C° 0.3 mm 3 mps 743 mmHg 91%

    23 October, Monday

    Time Temperature Precipitation Wind Pressure Humidity
    00:00 +10°C° 0.3 mm 3 mps 743 mmHg 91%
    01:00 +10°C° 0.3 mm 3 mps 743 mmHg 91%
    02:00 +9°C° 0.1 mm 3 mps 743 mmHg 91%
    03:00 +9°C° 0.1 mm 3 mps 743 mmHg 91%
    04:00 +9°C° 0.1 mm 3 mps 743 mmHg 92%
    05:00 +9°C° 0.2 mm 3 mps 743 mmHg 91%
    06:00 +8°C° 0.2 mm 3 mps 744 mmHg 91%
    07:00 +8°C° 0.2 mm 2 mps 744 mmHg 91%
    08:00 +9°C° 0.3 mm 3 mps 744 mmHg 88%
    09:00 +9°C° 0.3 mm 3 mps 744 mmHg 86%
    10:00 +9°C° 0.3 mm 3 mps 744 mmHg 83%
    11:00 +10°C° 0.1 mm 3 mps 744 mmHg 80%
    12:00 +10°C° 0.1 mm 3 mps 744 mmHg 78%
    13:00 +11°C° 0.1 mm 3 mps 744 mmHg 75%
    14:00 +10°C° 0.1 mm 3 mps 745 mmHg 76%
    15:00 +10°C° 0.1 mm 2 mps 745 mmHg 77%
    16:00 +10°C° 0.1 mm 2 mps 745 mmHg 78%
    17:00 +10°C° 0 mm 2 mps 745 mmHg 80%
    18:00 +9°C° 0 mm 2 mps 745 mmHg 82%
    19:00 +9°C° 0 mm 2 mps 745 mmHg 83%
    20:00 +9°C° 0.1 mm 2 mps 746 mmHg 84%
    21:00 +9°C° 0.1 mm 2 mps 746 mmHg 85%
    22:00 +9°C° 0.1 mm 2 mps 746 mmHg 86%
    23:00 +9°C° 0.1 mm 2 mps 746 mmHg 87%
    Show more